Wind_Speed
16 16 16 16 17 16 15 15 16 16 16 17 17 17 17 17 18 18 18 18 18 18 18 18 18 19 19 20 20 19 19 20 21 21 21 21 21 22 22 22 22 23 23
16 17 17 17 17 17 16 16 16 16 17 17 17 17 18 18 18 19 19 20 19 19 18 18 18 19 18 18 19 20 21 21 21 21 21 21 21 21 23 24 24 23 23
17 17 17 18 18 18 18 17 17 18 18 18 19 18 19 19 20 20 20 20 20 20 19 19 19 19 19 18 18 19 20 20 20 20 20 21 21 21 22 23 24 24 23
18 18 19 19 20 20 19 19 19 19 19 20 20 20 20 20 21 20 20 20 20 21 21 20 19 19 19 19 19 20 20 21 21 21 21 21 22 22 22 23 23 23 23
19 19 20 20 20 20 20 20 20 20 21 20 20 21 21 21 21 21 21 21 21 22 22 21 21 20 20 21 21 21 21 22 22 22 22 22 22 22 23 23 23 24 23
19 20 20 21 20 21 21 21 21 21 21 21 21 22 22 22 22 22 22 22 23 23 23 23 22 22 22 22 22 22 23 23 23 24 24 24 23 24 24 24 24 23 23
20 21 21 21 21 22 22 22 22 22 23 22 23 23 23 23 23 23 23 23 24 24 24 24 24 24 23 23 23 23 24 24 24 24 24 24 24 25 25 25 25 24 24
21 22 22 22 22 22 23 23 23 23 23 24 24 24 25 25 24 25 25 25 25 25 25 25 25 25 23 23 23 24 25 25 25 24 24 24 25 25 25 25 25 26 25
22 22 23 23 23 23 23 24 24 24 25 25 25 26 26 25 26 26 26 26 26 26 26 26 25 24 24 24 24 24 24 25 25 25 25 25 25 26 26 26 26 26 26
25 25 25 25 25 24 24 25 25 26 26 27 26 26 26 26 27 27 27 27 27 27 27 25 24 24 24 24 24 24 24 24 24 24 24 25 26 26 26 26 26 26 27
26 26 25 25 26 26 26 27 27 27 28 27 26 27 27 27 27 27 28 28 29 28 27 26 25 24 24 24 24 24 24 23 23 23 24 25 25 25 26 26 27 27 27
26 26 26 27 27 27 28 28 28 29 29 28 28 28 27 28 28 27 28 29 29 29 28 27 26 25 25 24 24 24 24 23 23 23 24 24 24 24 25 26 26 26 27
27 27 27 27 28 29 30 29 29 29 28 28 29 29 29 29 28 28 28 29 29 29 28 28 28 27 26 26 25 24 24 24 23 23 23 24 24 24 24 25 25 25 25
27 27 27 28 29 29 30 30 29 29 29 29 29 30 29 28 28 28 28 28 28 29 29 29 28 27 27 26 25 24 24 25 25 24 24 24 24 23 23 24 24 25 25
28 27 28 28 28 28 29 29 30 30 30 31 31 30 29 28 28 28 28 28 29 29 28 28 28 28 27 26 25 24 24 24 24 24 24 23 23 24 24 24 24 24 25
28 28 28 28 28 28 29 29 29 30 30 31 30 29 28 29 29 29 29 29 29 29 29 29 29 27 26 26 25 24 23 23 23 22 22 22 23 23 24 24 24 23 24
28 28 27 27 28 28 29 29 29 29 29 30 29 29 29 29 29 29 29 29 29 29 29 29 29 27 26 24 23 23 23 23 22 22 21 21 22 23 23 24 24 25 24
29 29 28 29 29 29 30 30 30 29 29 29 29 29 29 29 29 29 29 29 28 28 28 28 27 26 25 24 23 23 22 22 22 22 22 23 23 24 24 24 25 25 25
29 30 29 29 29 30 30 31 30 30 29 29 29 29 29 29 29 28 28 28 27 27 26 26 26 25 25 24 23 23 22 22 22 22 22 23 23 24 24 24 25 25 24
30 30 30 30 30 30 30 30 31 30 29 28 28 28 28 28 28 28 27 27 26 25 25 25 25 24 23 22 22 21 22 22 22 22 22 22 22 23 24 24 25 25 24
30 30 30 30 30 29 29 30 30 29 28 28 27 28 28 28 27 27 26 26 25 25 24 24 24 24 23 22 21 21 21 21 20 21 21 21 21 22 22 23 24 24 24
30 30 31 30 30 29 29 30 30 29 28 28 28 27 28 28 27 26 26 26 25 25 25 25 24 24 24 23 22 22 22 21 21 21 21 20 20 21 21 22 22 23 23
30 31 31 30 30 30 31 28 28 28 28 28 27 27 27 27 26 26 25 25 25 25 25 25 24 23 23 23 22 22 22 21 21 21 21 21 20 21 21 21 21 22 22
31 30 30 30 30 29 28 27 27 28 28 28 27 26 26 26 25 25 25 25 25 25 24 24 24 23 22 22 22 22 22 22 22 21 21 21 21 21 20 21 21 21 22
30 29 29 29 28 28 28 27 27 27 27 28 27 26 25 25 25 25 25 25 25 25 24 24 24 23 22 21 22 22 22 22 22 21 20 20 20 20 20 21 21 22 22
28 28 29 29 29 29 28 28 28 27 26 27 27 26 25 25 25 24 24 24 25 25 24 24 23 22 22 22 23 23 23 22 22 21 21 20 20 20 20 21 21 22 22
Wind_Direction
328 330 329 329 329 329 327 328 327 326 326 327 327 325 322 319 316 314 314 312 310 307 305 300 295 290 286 282 278 277 276 273 269 267 269 269 267 266 267 265 265 264 265
322 325 326 327 326 325 324 324 323 323 323 323 323 324 322 320 318 316 316 314 313 310 307 301 297 293 289 283 282 280 279 277 271 268 270 269 267 266 266 267 266 265 264
317 319 322 323 323 322 321 322 320 321 321 321 321 320 320 319 318 316 315 315 315 314 311 305 298 295 292 288 285 283 282 280 274 270 271 270 268 268 269 269 268 267 266
316 318 319 319 320 320 319 319 318 319 319 318 320 319 319 318 317 316 314 314 314 314 313 309 303 298 293 289 287 285 284 281 277 273 273 272 272 271 270 270 270 271 270
314 317 318 318 318 318 317 317 317 317 318 318 318 318 318 318 318 317 315 313 312 313 313 310 305 300 295 289 286 285 284 282 278 275 275 275 275 273 271 272 273 275 272
312 315 315 316 315 314 315 314 315 317 318 318 317 317 317 318 318 317 315 313 312 311 310 308 305 300 294 289 286 285 284 281 278 276 276 276 275 274 273 273 274 276 274
309 311 313 313 313 313 312 312 313 315 316 315 315 316 316 315 315 315 315 313 309 310 310 307 304 300 295 290 287 284 282 280 278 276 274 274 274 273 273 273 273 274 276
306 309 310 310 309 310 309 308 308 310 311 312 312 313 314 313 313 314 314 314 313 310 309 307 304 301 296 292 287 285 283 282 279 278 276 273 272 272 272 273 272 273 275
301 304 307 306 306 307 307 307 307 308 308 309 309 310 311 312 312 313 313 312 312 311 310 307 305 302 301 296 291 287 284 282 280 278 277 273 272 272 272 272 272 273 273
300 301 303 304 304 304 305 305 305 305 306 307 308 308 308 309 311 311 311 310 311 312 311 311 307 305 303 301 295 289 285 282 280 279 278 276 273 272 271 271 272 272 271
298 299 300 303 303 303 304 304 305 304 304 305 305 306 306 307 309 309 309 309 309 310 310 309 308 306 304 302 297 292 288 285 283 280 277 276 275 273 272 272 272 271 270
296 297 298 300 300 301 302 302 302 304 302 302 303 305 306 308 308 307 307 308 309 309 308 307 306 305 305 303 299 294 289 287 285 282 278 276 275 274 273 272 271 270 269
294 295 296 297 298 298 298 299 300 301 302 303 303 304 305 305 306 305 306 307 308 307 307 306 304 303 302 301 299 295 289 286 285 283 280 278 275 274 273 271 269 269 270
293 295 295 297 298 297 297 297 298 299 301 302 303 303 304 305 305 305 307 307 306 306 305 304 303 303 303 301 298 294 291 288 286 284 280 278 275 274 273 272 270 270 271
293 295 296 296 296 296 297 298 298 298 298 299 301 303 303 303 304 304 305 305 305 305 306 306 306 305 304 302 299 295 293 291 289 286 280 277 275 273 271 270 271 270 271
292 294 295 295 295 296 297 299 299 298 298 299 300 300 302 303 303 304 306 306 306 306 307 307 306 305 304 302 299 297 293 291 289 287 283 278 274 272 271 270 270 272 272
292 293 294 294 294 295 297 298 299 298 299 300 301 301 302 302 303 304 305 306 306 306 307 307 306 305 303 301 299 297 294 291 288 285 282 279 276 274 273 272 270 269 269
291 292 293 294 295 295 297 298 298 297 299 300 301 302 302 303 303 304 304 305 305 306 306 306 306 305 303 300 298 296 295 292 290 288 283 280 278 276 274 272 270 270 268
290 291 293 295 296 297 298 297 296 295 297 299 300 301 302 303 304 305 305 304 304 305 306 307 306 303 301 298 298 296 295 296 295 293 290 284 280 278 274 272 270 270 268
292 293 295 296 295 297 298 299 299 297 297 298 300 302 303 305 305 305 305 305 305 305 306 306 306 305 302 301 300 299 299 298 297 296 294 290 284 280 277 273 269 268 268
293 293 294 295 295 296 298 299 298 298 297 297 298 300 301 303 305 307 307 306 305 305 306 305 304 304 303 302 301 300 300 299 298 297 296 292 287 283 280 275 272 269 267
290 291 294 295 296 297 298 298 298 298 298 297 296 297 299 302 304 305 307 307 306 305 304 304 304 305 304 302 300 298 297 297 297 296 296 293 288 285 280 277 273 270 267
289 290 291 292 295 297 298 297 297 297 298 298 297 297 298 299 301 304 306 306 306 306 306 306 305 303 303 303 300 300 299 298 297 295 293 293 291 286 283 280 275 270 267
287 289 290 290 291 294 295 297 296 296 297 297 296 296 296 297 298 300 303 305 307 308 307 307 305 304 305 305 303 301 300 298 299 297 294 293 291 288 285 282 278 275 271
285 286 288 290 292 294 295 295 296 297 297 297 295 294 294 295 296 298 301 304 305 306 306 305 306 305 304 303 304 303 302 300 298 298 297 296 294 292 288 285 280 277 273
284 285 286 288 291 292 294 294 295 297 299 298 296 294 294 293 293 295 297 299 301 302 303 304 305 304 304 303 303 303 303 300 297 295 295 295 295 294 292 288 285 281 278
Height
5876 5874 5872 5870 5868 5866 5864 5862 5860 5858 5856 5853 5851 5848 5846 5844 5842 5840 5838 5836 5834 5832 5830 5828 5827 5825 5824 5823 5823 5823 5823 5823 5823 5823 5824 5825 5826 5826 5826 5826 5828 5829 5829
5874 5872 5870 5868 5866 5864 5861 5859 5857 5855 5853 5851 5848 5845 5843 5841 5839 5836 5834 5832 5830 5828 5826 5824 5822 5821 5819 5818 5818 5818 5818 5817 5817 5818 5818 5819 5819 5820 5821 5821 5822 5822 5823
5872 5870 5867 5865 5863 5861 5858 5856 5854 5852 5850 5848 5845 5843 5840 5838 5835 5833 5830 5828 5826 5823 5821 5820 5818 5816 5815 5814 5813 5813 5812 5812 5812 5812 5813 5813 5813 5814 5815 5815 5815 5816 5816
5868 5866 5865 5862 5860 5858 5855 5853 5851 5849 5846 5844 5842 5839 5836 5834 5831 5829 5826 5824 5821 5819 5817 5814 5812 5811 5809 5808 5808 5807 5806 5806 5806 5807 5807 5807 5808 5808 5808 5809 5809 5809 5810
5865 5863 5861 5859 5857 5854 5852 5850 5847 5845 5843 5840 5838 5835 5833 5830 5827 5824 5821 5819 5817 5814 5812 5809 5807 5806 5804 5803 5802 5801 5801 5800 5800 5801 5801 5801 5802 5802 5802 5802 5803 5803 5803
5862 5860 5858 5856 5853 5851 5849 5846 5844 5841 5838 5836 5833 5831 5828 5826 5823 5820 5817 5814 5812 5809 5807 5804 5802 5800 5798 5797 5796 5795 5794 5794 5794 5794 5794 5795 5796 5796 5796 5796 5796 5796 5797
5858 5856 5854 5851 5849 5847 5844 5842 5840 5837 5835 5832 5829 5826 5824 5821 5818 5815 5812 5809 5806 5804 5801 5799 5796 5794 5792 5791 5789 5788 5788 5787 5787 5787 5787 5788 5788 5788 5789 5789 5789 5789 5790
5853 5851 5849 5847 5845 5842 5840 5838 5835 5832 5830 5827 5824 5822 5819 5816 5813 5810 5807 5804 5801 5798 5795 5793 5790 5788 5786 5784 5783 5782 5781 5780 5780 5780 5780 5780 5780 5781 5781 5781 5781 5782 5782
5847 5846 5844 5842 5840 5837 5835 5832 5830 5827 5825 5822 5819 5816 5814 5811 5808 5804 5801 5798 5795 5793 5789 5786 5783 5782 5780 5777 5776 5775 5774 5773 5773 5773 5773 5772 5773 5773 5774 5774 5774 5774 5774
5842 5841 5838 5836 5834 5832 5830 5827 5825 5822 5819 5816 5813 5810 5808 5805 5802 5799 5795 5792 5789 5786 5783 5780 5778 5775 5773 5771 5769 5768 5767 5766 5765 5765 5765 5765 5765 5765 5766 5766 5766 5766 5766
5836 5835 5832 5830 5828 5826 5824 5821 5818 5816 5813 5810 5807 5805 5802 5799 5796 5792 5789 5786 5783 5780 5777 5774 5772 5769 5767 5764 5762 5761 5760 5759 5758 5758 5758 5758 5758 5758 5758 5758 5758 5758 5758
5830 5828 5826 5824 5822 5819 5817 5815 5812 5809 5806 5803 5801 5798 5795 5792 5789 5786 5783 5779 5776 5773 5770 5768 5765 5763 5760 5758 5756 5754 5753 5752 5751 5750 5750 5750 5750 5750 5750 5750 5750 5750 5750
5824 5822 5820 5818 5815 5813 5810 5808 5805 5802 5800 5797 5794 5791 5788 5785 5782 5779 5776 5773 5769 5766 5763 5761 5758 5756 5753 5750 5749 5747 5746 5744 5743 5743 5742 5742 5742 5742 5742 5742 5742 5742 5742
5817 5815 5813 5811 5809 5806 5803 5800 5798 5795 5792 5789 5787 5784 5780 5777 5775 5772 5769 5766 5763 5760 5756 5754 5751 5748 5746 5743 5741 5739 5738 5737 5736 5735 5734 5733 5733 5734 5734 5734 5734 5734 5735
5810 5808 5806 5804 5802 5799 5796 5793 5790 5788 5785 5783 5780 5776 5773 5771 5767 5764 5761 5759 5756 5753 5749 5747 5744 5741 5739 5736 5734 5732 5731 5730 5728 5727 5726 5726 5725 5726 5726 5726 5727 5727 5727
5803 5801 5799 5797 5794 5792 5789 5786 5783 5781 5778 5775 5772 5769 5766 5764 5760 5757 5754 5751 5748 5744 5742 5739 5736 5733 5731 5729 5727 5725 5723 5722 5721 5720 5719 5718 5718 5718 5718 5718 5718 5719 5719
5795 5793 5791 5789 5786 5784 5781 5779 5776 5774 5771 5768 5764 5762 5759 5756 5753 5750 5747 5744 5740 5737 5734 5732 5729 5726 5724 5721 5719 5717 5716 5714 5713 5712 5711 5711 5710 5710 5710 5710 5711 5711 5712
5788 5786 5783 5781 5779 5776 5774 5771 5769 5766 5764 5761 5757 5754 5751 5749 5746 5743 5740 5737 5734 5730 5727 5725 5721 5718 5716 5714 5712 5710 5709 5707 5706 5705 5704 5703 5703 5703 5703 5703 5703 5703 5704
5780 5778 5775 5773 5771 5769 5766 5764 5761 5759 5756 5753 5750 5747 5744 5741 5739 5735 5732 5729 5726 5723 5720 5717 5714 5711 5709 5707 5705 5703 5702 5700 5699 5698 5697 5696 5695 5694 5694 5694 5695 5695 5695
5772 5770 5767 5765 5763 5761 5758 5756 5753 5751 5748 5745 5742 5740 5737 5734 5731 5728 5725 5722 5719 5716 5714 5711 5708 5705 5702 5700 5698 5697 5695 5694 5692 5691 5689 5688 5687 5686 5686 5686 5686 5687 5687
5764 5762 5759 5757 5755 5752 5750 5748 5745 5742 5740 5738 5735 5733 5730 5727 5724 5721 5718 5715 5713 5710 5707 5704 5702 5699 5697 5694 5692 5691 5689 5687 5685 5684 5682 5680 5679 5679 5678 5678 5678 5678 5679
5756 5754 5752 5749 5747 5744 5742 5740 5737 5734 5732 5730 5727 5725 5722 5720 5717 5714 5711 5708 5706 5703 5701 5698 5695 5693 5690 5688 5686 5685 5683 5681 5679 5677 5676 5674 5672 5672 5671 5671 5670 5670 5671
5748 5746 5744 5742 5739 5736 5733 5731 5730 5727 5725 5722 5720 5717 5715 5712 5710 5707 5704 5702 5699 5697 5694 5692 5689 5686 5684 5682 5680 5678 5676 5675 5673 5671 5669 5668 5666 5665 5664 5663 5663 5662 5663
5739 5737 5736 5734 5732 5729 5726 5723 5722 5720 5717 5715 5712 5710 5708 5705 5703 5701 5698 5695 5693 5690 5688 5685 5683 5681 5678 5676 5674 5672 5670 5668 5666 5664 5663 5661 5660 5659 5657 5656 5655 5655 5655
5730 5729 5727 5726 5724 5722 5719 5717 5715 5712 5710 5707 5705 5703 5700 5698 5696 5694 5691 5689 5687 5684 5682 5679 5677 5675 5672 5670 5668 5666 5663 5662 5660 5658 5656 5655 5654 5652 5651 5650 5649 5648 5648
5722 5720 5719 5718 5716 5714 5712 5710 5708 5705 5702 5699 5697 5694 5692 5690 5688 5686 5684 5682 5680 5678 5676 5673 5671 5669 5666 5664 5662 5659 5657 5655 5654 5652 5650 5649 5647 5646 5644 5643 5642 5641 5640